Time,TemperatureF,DewpointF,PressureIn,WindDirection,WindDirectionDegrees,WindSpeedMPH,WindSpeedGustMPH,Humidity,HourlyPrecipIn,Conditions,Clouds,dailyrainin,SoftwareType,DateUTC
2013-02-13 01:14:00,22.6,28.8,28.77,WSW,237,2.0,4.0,26,-99.99,,,-99.99,meteohub,2013-02-13 07:14:00,
2013-02-13 01:19:00,22.5,28.9,28.77,SW,233,0.0,4.0,26,-99.99,,,-99.99,meteohub,2013-02-13 07:19:00,
2013-02-13 01:24:00,22.3,28.9,28.77,SW,231,0.0,4.0,26,-99.99,,,-99.99,meteohub,2013-02-13 07:24:00,
2013-02-13 01:29:00,22.1,29.1,28.77,SW,228,2.0,4.0,26,-99.99,,,-99.99,meteohub,2013-02-13 07:29:00,
2013-02-13 01:39:00,21.9,29.1,28.77,SW,229,0.0,3.0,26,-99.99,,,-99.99,meteohub,2013-02-13 07:39:00,
2013-02-13 01:44:00,21.7,28.9,28.77,SW,228,0.0,3.0,26,-99.99,,,-99.99,meteohub,2013-02-13 07:44:00,
2013-02-13 01:49:00,21.7,29.1,28.74,SW,229,0.0,0.0,26,-99.99,,,-99.99,meteohub,2013-02-13 07:49:00,
2013-02-13 01:54:00,21.6,29.1,28.74,SW,229,0.0,0.0,26,-99.99,,,-99.99,meteohub,2013-02-13 07:54:00,
2013-02-13 01:59:00,21.6,29.1,28.74,SW,229,0.0,0.0,26,-99.99,,,-99.99,meteohub,2013-02-13 07:59:00,
2013-02-13 02:05:00,21.7,29.1,28.77,SW,229,0.0,0.0,26,-99.99,,,-99.99,meteohub,2013-02-13 08:05:00,
2013-02-13 02:10:00,21.9,29.1,28.77,SW,229,0.0,2.0,26,-99.99,,,-99.99,meteohub,2013-02-13 08:10:00,
2013-02-13 02:15:00,21.9,29.1,28.77,SW,218,0.0,2.0,26,-99.99,,,-99.99,meteohub,2013-02-13 08:15:00,
2013-02-13 02:20:00,22.1,29.1,28.77,SW,215,0.0,2.0,26,-99.99,,,-99.99,meteohub,2013-02-13 08:20:00,
2013-02-13 02:26:00,22.1,29.1,28.77,South,185,0.0,0.0,26,-99.99,,,-99.99,meteohub,2013-02-13 08:26:00,
2013-02-13 02:31:00,22.3,29.1,28.77,SSW,195,0.0,0.0,26,-99.99,,,-99.99,meteohub,2013-02-13 08:31:00,
2013-02-13 03:09:00,23.0,29.3,28.74,SW,232,3.0,4.0,26,-99.99,,,-99.99,meteohub,2013-02-13 09:09:00,
2013-02-13 03:14:00,23.0,29.3,28.74,South,189,0.0,4.0,26,-99.99,,,-99.99,meteohub,2013-02-13 09:14:00,
2013-02-13 03:19:00,23.0,29.3,28.74,SSW,206,3.0,4.0,26,-99.99,,,-99.99,meteohub,2013-02-13 09:19:00,
2013-02-13 03:25:00,23.2,29.3,28.74,SW,214,3.0,4.0,26,-99.99,,,-99.99,meteohub,2013-02-13 09:25:00,
2013-02-13 03:30:00,23.2,29.3,28.74,SSW,213,0.0,4.0,26,-99.99,,,-99.99,meteohub,2013-02-13 09:30:00,
2013-02-13 03:35:00,23.2,29.3,28.74,SSW,198,0.0,3.0,26,-99.99,,,-99.99,meteohub,2013-02-13 09:35:00,
2013-02-13 03:40:00,23.2,29.3,28.74,SSW,205,0.0,3.0,26,-99.99,,,-99.99,meteohub,2013-02-13 09:40:00,
2013-02-13 03:47:00,23.2,29.5,28.74,SW,226,4.0,4.0,26,-99.99,,,-99.99,meteohub,2013-02-13 09:47:00,
2013-02-13 03:52:00,23.2,29.5,28.74,WSW,237,3.0,6.0,26,-99.99,,,-99.99,meteohub,2013-02-13 09:52:00,
2013-02-13 03:57:00,23.2,29.5,28.74,West,259,0.0,6.0,26,-99.99,,,-99.99,meteohub,2013-02-13 09:57:00,
2013-02-13 04:02:00,23.2,29.5,28.74,West,259,0.0,6.0,26,-99.99,,,-99.99,meteohub,2013-02-13 10:02:00,
2013-02-13 04:07:00,23.0,29.5,28.74,West,259,0.0,4.0,26,-99.99,,,-99.99,meteohub,2013-02-13 10:07:00,
2013-02-13 04:12:00,22.8,29.5,28.74,West,259,0.0,2.0,26,-99.99,,,-99.99,meteohub,2013-02-13 10:12:00,
2013-02-13 04:17:00,22.8,29.7,28.74,West,259,0.0,0.0,26,-99.99,,,-99.99,meteohub,2013-02-13 10:17:00,
2013-02-13 04:22:00,22.6,29.5,28.74,SSW,200,0.0,0.0,26,-99.99,,,-99.99,meteohub,2013-02-13 10:22:00,
2013-02-13 04:27:00,22.5,29.5,28.74,South,189,0.0,0.0,26,-99.99,,,-99.99,meteohub,2013-02-13 10:27:00,
2013-02-13 04:32:00,22.5,29.7,28.74,SW,221,0.0,0.0,26,-99.99,,,-99.99,meteohub,2013-02-13 10:32:00,
2013-02-13 04:37:00,22.1,29.7,28.74,SW,221,0.0,0.0,26,-99.99,,,-99.99,meteohub,2013-02-13 10:37:00,
2013-02-13 04:42:00,22.1,29.5,28.74,SSW,211,0.0,0.0,26,-99.99,,,-99.99,meteohub,2013-02-13 10:42:00,
2013-02-13 04:47:00,21.9,29.7,28.74,SW,232,0.0,3.0,26,-99.99,,,-99.99,meteohub,2013-02-13 10:47:00,
2013-02-13 04:52:00,21.9,29.7,28.74,South,172,2.0,3.0,26,-99.99,,,-99.99,meteohub,2013-02-13 10:52:00,
2013-02-13 04:57:00,21.9,29.7,28.74,South,172,0.0,3.0,26,-99.99,,,-99.99,meteohub,2013-02-13 10:57:00,
2013-02-13 05:02:00,21.9,29.7,28.74,South,172,0.0,3.0,26,-99.99,,,-99.99,meteohub,2013-02-13 11:02:00,
2013-02-13 05:07:00,21.7,29.7,28.74,South,180,0.0,3.0,26,-99.99,,,-99.99,meteohub,2013-02-13 11:07:00,
2013-02-13 05:12:00,21.9,29.7,28.74,South,181,0.0,3.0,26,-99.99,,,-99.99,meteohub,2013-02-13 11:12:00,
2013-02-13 05:17:00,21.9,29.7,28.74,SSW,210,0.0,0.0,26,-99.99,,,-99.99,meteohub,2013-02-13 11:17:00,
2013-02-13 05:22:00,21.9,29.7,28.74,SW,229,0.0,0.0,26,-99.99,,,-99.99,meteohub,2013-02-13 11:22:00,
2013-02-13 05:27:00,21.9,29.7,28.74,SSW,210,0.0,4.0,26,-99.99,,,-99.99,meteohub,2013-02-13 11:27:00,
2013-02-13 05:37:00,22.1,29.7,28.74,SW,220,0.0,4.0,26,-99.99,,,-99.99,meteohub,2013-02-13 11:37:00,
2013-02-13 05:42:00,22.1,29.7,28.74,SSW,192,0.0,4.0,26,-99.99,,,-99.99,meteohub,2013-02-13 11:42:00,
2013-02-13 05:47:00,22.3,29.7,28.74,SSW,201,0.0,0.0,26,-99.99,,,-99.99,meteohub,2013-02-13 11:47:00,
2013-02-13 05:53:00,22.3,29.8,28.71,South,181,0.0,4.0,26,-99.99,,,-99.99,meteohub,2013-02-13 11:53:00,
2013-02-13 05:58:00,22.5,29.8,28.71,South,178,0.0,4.0,26,-99.99,,,-99.99,meteohub,2013-02-13 11:58:00,
2013-02-13 06:03:00,22.5,29.8,28.71,South,174,0.0,4.0,26,-99.99,,,-99.99,meteohub,2013-02-13 12:03:00,
2013-02-13 06:08:00,22.5,30.0,28.71,South,181,0.0,4.0,26,-99.99,,,-99.99,meteohub,2013-02-13 12:08:00,
2013-02-13 06:13:00,22.6,30.0,28.71,South,189,0.0,4.0,26,-99.99,,,-99.99,meteohub,2013-02-13 12:13:00,
2013-02-13 06:19:00,22.6,28.9,28.71,South,171,3.0,4.0,25,-99.99,,,-99.99,meteohub,2013-02-13 12:19:00,
2013-02-13 06:24:00,22.6,28.9,28.71,WSW,246,0.0,4.0,25,-99.99,,,-99.99,meteohub,2013-02-13 12:24:00,
2013-02-13 06:29:00,22.6,28.9,28.71,SSE,147,0.0,4.0,25,-99.99,,,-99.99,meteohub,2013-02-13 12:29:00,
2013-02-13 06:34:00,22.6,28.9,28.71,SSE,152,0.0,4.0,25,-99.99,,,-99.99,meteohub,2013-02-13 12:34:00,
2013-02-13 06:40:00,22.6,28.9,28.71,SSE,152,0.0,4.0,25,-99.99,,,-99.99,meteohub,2013-02-13 12:40:00,
2013-02-13 06:45:00,22.6,28.9,28.71,SSW,210,0.0,3.0,25,-99.99,,,-99.99,meteohub,2013-02-13 12:45:00,
2013-02-13 06:50:00,22.6,28.9,28.71,SSE,160,0.0,3.0,25,-99.99,,,-99.99,meteohub,2013-02-13 12:50:00,
2013-02-13 06:55:00,22.6,28.9,28.71,SSE,167,3.0,0.0,25,-99.99,,,-99.99,meteohub,2013-02-13 12:55:00,
2013-02-13 07:01:00,22.6,28.8,28.71,SSE,167,0.0,4.0,25,-99.99,,,-99.99,meteohub,2013-02-13 13:01:00,
2013-02-13 07:06:00,22.6,28.8,28.71,South,178,0.0,4.0,25,-99.99,,,-99.99,meteohub,2013-02-13 13:06:00,
2013-02-13 07:11:00,22.5,28.8,28.71,South,180,0.0,4.0,25,-99.99,,,-99.99,meteohub,2013-02-13 13:11:00,
2013-02-13 07:16:00,22.3,28.8,28.71,SSW,196,0.0,4.0,25,-99.99,,,-99.99,meteohub,2013-02-13 13:16:00,
2013-02-13 07:22:00,22.3,28.8,28.71,SSW,212,0.0,4.0,25,-99.99,,,-99.99,meteohub,2013-02-13 13:22:00,
2013-02-13 07:27:00,22.3,28.6,28.71,SSW,193,3.0,4.0,25,-99.99,,,-99.99,meteohub,2013-02-13 13:27:00,
2013-02-13 07:32:00,22.3,28.8,28.71,SW,214,0.0,4.0,25,-99.99,,,-99.99,meteohub,2013-02-13 13:32:00,
2013-02-13 07:37:00,22.3,28.8,28.71,South,170,3.0,5.0,25,-99.99,,,-99.99,meteohub,2013-02-13 13:37:00,
2013-02-13 07:42:00,22.3,28.6,28.71,South,173,3.0,5.0,25,-99.99,,,-99.99,meteohub,2013-02-13 13:42:00,
2013-02-13 07:47:00,22.5,28.6,28.71,SSE,160,6.0,6.0,25,-99.99,,,-99.99,meteohub,2013-02-13 13:47:00,
2013-02-13 07:52:00,22.5,28.6,28.71,South,182,3.0,5.0,25,-99.99,,,-99.99,meteohub,2013-02-13 13:52:00,
2013-02-13 07:57:00,22.5,28.6,28.71,SSW,192,0.0,6.0,25,-99.99,,,-99.99,meteohub,2013-02-13 13:57:00,
2013-02-13 08:02:00,22.5,28.6,28.71,South,186,3.0,6.0,25,-99.99,,,-99.99,meteohub,2013-02-13 14:02:00,
2013-02-13 08:07:00,22.6,28.4,28.71,SW,215,3.0,6.0,25,-99.99,,,-99.99,meteohub,2013-02-13 14:07:00,
2013-02-13 08:12:00,22.6,28.4,28.71,SW,219,3.0,6.0,25,-99.99,,,-99.99,meteohub,2013-02-13 14:12:00,
2013-02-13 08:17:00,22.8,28.4,28.71,South,171,3.0,6.0,25,-99.99,,,-99.99,meteohub,2013-02-13 14:17:00,
2013-02-13 08:22:00,22.8,28.4,28.71,South,183,3.0,6.0,25,-99.99,,,-99.99,meteohub,2013-02-13 14:22:00,
2013-02-13 08:27:00,23.0,28.4,28.71,South,180,2.0,5.0,25,-99.99,,,-99.99,meteohub,2013-02-13 14:27:00,
2013-02-13 08:32:00,23.0,28.4,28.71,SSE,152,5.0,5.0,25,-99.99,,,-99.99,meteohub,2013-02-13 14:32:00,
2013-02-13 08:37:00,23.2,28.4,28.69,SSW,204,3.0,5.0,25,-99.99,,,-99.99,meteohub,2013-02-13 14:37:00,
2013-02-13 08:42:00,23.2,28.2,28.69,South,186,3.0,6.0,25,-99.99,,,-99.99,meteohub,2013-02-13 14:42:00,
2013-02-13 08:48:00,23.5,28.2,28.69,SW,219,4.0,6.0,25,-99.99,,,-99.99,meteohub,2013-02-13 14:48:00,
2013-02-13 08:53:00,23.5,28.2,28.71,SSW,201,4.0,5.0,25,-99.99,,,-99.99,meteohub,2013-02-13 14:53:00,
2013-02-13 08:58:00,23.7,28.2,28.71,South,181,4.0,6.0,25,-99.99,,,-99.99,meteohub,2013-02-13 14:58:00,
2013-02-13 09:03:00,23.9,28.2,28.71,South,175,8.0,8.0,25,-99.99,,,-99.99,meteohub,2013-02-13 15:03:00,
2013-02-13 09:08:00,23.7,28.0,28.69,SSE,166,4.0,8.0,25,-99.99,,,-99.99,meteohub,2013-02-13 15:08:00,
2013-02-13 09:14:00,23.7,28.2,28.69,SSE,164,6.0,8.0,25,-99.99,,,-99.99,meteohub,2013-02-13 15:14:00,
2013-02-13 09:19:00,23.9,28.2,28.69,South,185,6.0,8.0,25,-99.99,,,-99.99,meteohub,2013-02-13 15:19:00,
2013-02-13 09:24:00,23.9,28.2,28.69,South,169,4.0,8.0,25,-99.99,,,-99.99,meteohub,2013-02-13 15:24:00,
2013-02-13 09:29:00,23.9,28.2,28.69,SSE,155,4.0,8.0,25,-99.99,,,-99.99,meteohub,2013-02-13 15:29:00,
2013-02-13 09:34:00,23.9,28.2,28.69,South,181,5.0,7.0,25,-99.99,,,-99.99,meteohub,2013-02-13 15:34:00,
2013-02-13 09:39:00,24.1,28.0,28.69,SW,233,5.0,7.0,25,-99.99,,,-99.99,meteohub,2013-02-13 15:39:00,
2013-02-13 11:09:00,30.2,28.0,28.69,SSW,207,4.0,8.0,25,-99.99,,,-99.99,meteohub,2013-02-13 17:09:00,
2013-02-13 11:16:00,30.7,28.0,28.69,SE,135,5.0,8.0,25,-99.99,,,-99.99,meteohub,2013-02-13 17:16:00,
2013-02-13 11:21:00,31.1,28.0,28.69,South,177,5.0,8.0,25,-99.99,,,-99.99,meteohub,2013-02-13 17:21:00,
2013-02-13 11:26:00,31.8,28.0,28.69,SW,214,5.0,8.0,25,-99.99,,,-99.99,meteohub,2013-02-13 17:26:00,
2013-02-13 11:31:00,32.4,28.2,28.69,SSE,165,5.0,8.0,25,-99.99,,,-99.99,meteohub,2013-02-13 17:31:00,
2013-02-13 11:36:00,32.9,28.0,28.69,South,176,3.0,6.0,25,-99.99,,,-99.99,meteohub,2013-02-13 17:36:00,
2013-02-13 11:42:00,33.3,28.0,28.69,SSE,149,3.0,8.0,25,-99.99,,,-99.99,meteohub,2013-02-13 17:42:00,
2013-02-13 11:47:00,33.6,28.2,28.69,SW,231,4.0,8.0,25,-99.99,,,-99.99,meteohub,2013-02-13 17:47:00,
2013-02-13 11:52:00,33.8,28.0,28.69,SSW,208,4.0,8.0,25,-99.99,,,-99.99,meteohub,2013-02-13 17:52:00,
2013-02-13 11:57:00,34.5,28.0,28.69,SSW,211,6.0,8.0,25,-99.99,,,-99.99,meteohub,2013-02-13 17:57:00,
2013-02-13 12:02:00,34.9,28.0,28.69,SSW,206,4.0,8.0,25,-99.99,,,-99.99,meteohub,2013-02-13 18:02:00,
2013-02-13 12:07:00,35.4,28.0,28.69,SE,136,3.0,8.0,25,-99.99,,,-99.99,meteohub,2013-02-13 18:07:00,
2013-02-13 12:12:00,35.6,28.0,28.69,SSW,208,2.0,8.0,25,-99.99,,,-99.99,meteohub,2013-02-13 18:12:00,
2013-02-13 12:17:00,36.0,28.0,28.69,South,171,5.0,6.0,25,-99.99,,,-99.99,meteohub,2013-02-13 18:17:00,
2013-02-13 12:22:00,36.1,28.0,28.66,South,187,3.0,6.0,25,-99.99,,,-99.99,meteohub,2013-02-13 18:22:00,
2013-02-13 12:34:00,37.6,28.0,28.66,South,183,5.0,6.0,25,-99.99,,,-99.99,meteohub,2013-02-13 18:34:00,
2013-02-13 12:40:00,37.9,28.0,28.66,SSE,157,4.0,8.0,25,-99.99,,,-99.99,meteohub,2013-02-13 18:40:00,
2013-02-13 12:47:00,37.9,28.0,28.66,SSE,147,4.0,8.0,25,-99.99,,,-99.99,meteohub,2013-02-13 18:47:00,
2013-02-13 12:52:00,37.8,28.0,28.66,SSW,198,5.0,8.0,25,-99.99,,,-99.99,meteohub,2013-02-13 18:52:00,
2013-02-13 12:59:00,37.6,28.0,28.66,South,186,4.0,10.0,25,-99.99,,,-99.99,meteohub,2013-02-13 18:59:00,
2013-02-13 13:04:00,37.9,28.0,28.66,South,175,8.0,10.0,25,-99.99,,,-99.99,meteohub,2013-02-13 19:04:00,
2013-02-13 13:09:00,38.3,28.0,28.66,SE,130,11.0,11.0,25,-99.99,,,-99.99,meteohub,2013-02-13 19:09:00,
2013-02-13 13:14:00,38.7,28.0,28.66,SSE,148,6.0,9.0,25,-99.99,,,-99.99,meteohub,2013-02-13 19:14:00,
2013-02-13 13:19:00,39.7,28.0,28.63,South,186,5.0,11.0,25,-99.99,,,-99.99,meteohub,2013-02-13 19:19:00,
2013-02-13 13:25:00,40.6,28.0,28.63,SSE,163,8.0,11.0,25,-99.99,,,-99.99,meteohub,2013-02-13 19:25:00,
2013-02-13 13:30:00,40.5,28.0,28.63,South,173,3.0,9.0,25,-99.99,,,-99.99,meteohub,2013-02-13 19:30:00,
2013-02-13 13:35:00,41.0,28.0,28.63,SSE,161,4.0,10.0,25,-99.99,,,-99.99,meteohub,2013-02-13 19:35:00,
2013-02-13 13:40:00,41.2,28.0,28.63,South,173,3.0,10.0,25,-99.99,,,-99.99,meteohub,2013-02-13 19:40:00,
2013-02-13 13:45:00,41.5,28.0,28.63,SSW,206,8.0,10.0,25,-99.99,,,-99.99,meteohub,2013-02-13 19:45:00,
2013-02-13 13:51:00,41.2,28.0,28.63,SE,141,3.0,8.0,25,-99.99,,,-99.99,meteohub,2013-02-13 19:51:00,
2013-02-13 13:56:00,41.2,28.0,28.63,SSE,157,5.0,8.0,25,-99.99,,,-99.99,meteohub,2013-02-13 19:56:00,
2013-02-13 14:01:00,41.0,28.0,28.63,SSE,160,6.0,8.0,25,-99.99,,,-99.99,meteohub,2013-02-13 20:01:00,
2013-02-13 14:06:00,40.6,28.0,28.63,SSE,150,8.0,8.0,25,-99.99,,,-99.99,meteohub,2013-02-13 20:06:00,
2013-02-13 14:11:00,40.6,28.0,28.63,SSE,165,6.0,8.0,25,-99.99,,,-99.99,meteohub,2013-02-13 20:11:00,
2013-02-13 14:16:00,40.6,28.0,28.63,SE,138,5.0,9.0,25,-99.99,,,-99.99,meteohub,2013-02-13 20:16:00,
2013-02-13 14:22:00,40.5,28.0,28.63,South,169,5.0,9.0,25,-99.99,,,-99.99,meteohub,2013-02-13 20:22:00,
2013-02-13 14:27:00,40.3,28.0,28.63,SE,139,4.0,9.0,25,-99.99,,,-99.99,meteohub,2013-02-13 20:27:00,
2013-02-13 14:32:00,40.3,28.0,28.63,SSE,147,3.0,8.0,25,-99.99,,,-99.99,meteohub,2013-02-13 20:32:00,
2013-02-13 14:37:00,40.5,28.0,28.63,South,184,3.0,8.0,25,-99.99,,,-99.99,meteohub,2013-02-13 20:37:00,
2013-02-13 14:42:00,40.8,28.0,28.63,SSE,155,4.0,8.0,25,-99.99,,,-99.99,meteohub,2013-02-13 20:42:00,
2013-02-13 14:47:00,41.2,28.0,28.63,SSE,159,3.0,10.0,25,-99.99,,,-99.99,meteohub,2013-02-13 20:47:00,
2013-02-13 14:52:00,41.4,28.0,28.63,SSW,205,4.0,10.0,25,-99.99,,,-99.99,meteohub,2013-02-13 20:52:00,
2013-02-13 14:57:00,41.4,28.0,28.63,SW,215,4.0,10.0,25,-99.99,,,-99.99,meteohub,2013-02-13 20:57:00,
2013-02-13 15:02:00,41.2,28.0,28.63,WSW,245,4.0,6.0,25,-99.99,,,-99.99,meteohub,2013-02-13 21:02:00,
2013-02-13 15:07:00,40.8,28.0,28.63,WSW,251,4.0,6.0,25,-99.99,,,-99.99,meteohub,2013-02-13 21:07:00,
2013-02-13 15:12:00,40.5,28.0,28.63,SW,233,4.0,7.0,25,-99.99,,,-99.99,meteohub,2013-02-13 21:12:00,
2013-02-13 15:17:00,40.3,28.0,28.63,WSW,245,4.0,7.0,25,-99.99,,,-99.99,meteohub,2013-02-13 21:17:00,
2013-02-13 15:22:00,40.3,28.0,28.63,SW,223,8.0,8.0,25,-99.99,,,-99.99,meteohub,2013-02-13 21:22:00,
2013-02-13 15:27:00,40.1,28.0,28.63,SW,233,5.0,8.0,25,-99.99,,,-99.99,meteohub,2013-02-13 21:27:00,
2013-02-13 15:32:00,39.7,28.0,28.63,WSW,240,5.0,8.0,25,-99.99,,,-99.99,meteohub,2013-02-13 21:32:00,
2013-02-13 15:37:00,39.4,28.0,28.63,West,264,6.0,8.0,25,-99.99,,,-99.99,meteohub,2013-02-13 21:37:00,
2013-02-13 15:42:00,39.2,28.0,28.63,SW,223,6.0,8.0,25,-99.99,,,-99.99,meteohub,2013-02-13 21:42:00,
2013-02-13 15:47:00,38.8,28.0,28.63,SW,229,4.0,8.0,25,-99.99,,,-99.99,meteohub,2013-02-13 21:47:00,
2013-02-13 15:53:00,38.7,28.0,28.63,SW,216,4.0,8.0,25,-99.99,,,-99.99,meteohub,2013-02-13 21:53:00,
2013-02-13 15:58:00,38.7,28.0,28.63,SW,217,5.0,8.0,25,-99.99,,,-99.99,meteohub,2013-02-13 21:58:00,
2013-02-13 16:03:00,38.7,28.0,28.63,South,188,4.0,7.0,25,-99.99,,,-99.99,meteohub,2013-02-13 22:03:00,
2013-02-13 16:08:00,38.5,28.0,28.63,SSW,213,4.0,8.0,25,-99.99,,,-99.99,meteohub,2013-02-13 22:08:00,
2013-02-13 16:13:00,38.1,28.0,28.63,SW,232,4.0,8.0,25,-99.99,,,-99.99,meteohub,2013-02-13 22:13:00,
2013-02-13 16:19:00,37.9,28.2,28.63,South,191,3.0,8.0,25,-99.99,,,-99.99,meteohub,2013-02-13 22:19:00,
2013-02-13 16:24:00,37.8,28.0,28.63,SW,229,3.0,6.0,25,-99.99,,,-99.99,meteohub,2013-02-13 22:24:00,
2013-02-13 16:29:00,37.6,28.0,28.63,South,172,5.0,5.0,25,-99.99,,,-99.99,meteohub,2013-02-13 22:29:00,
2013-02-13 16:34:00,37.6,28.2,28.63,South,176,8.0,8.0,25,-99.99,,,-99.99,meteohub,2013-02-13 22:34:00,
2013-02-13 16:39:00,37.2,28.2,28.63,SSW,213,5.0,8.0,25,-99.99,,,-99.99,meteohub,2013-02-13 22:39:00,
2013-02-13 16:44:00,36.9,28.0,28.63,SSW,197,3.0,8.0,25,-99.99,,,-99.99,meteohub,2013-02-13 22:44:00,
2013-02-13 16:50:00,36.7,28.0,28.63,SW,218,3.0,8.0,25,-99.99,,,-99.99,meteohub,2013-02-13 22:50:00,
2013-02-13 16:55:00,36.5,28.0,28.63,SSW,206,3.0,5.0,25,-99.99,,,-99.99,meteohub,2013-02-13 22:55:00,
2013-02-13 17:00:00,36.3,28.0,28.63,SW,236,3.0,5.0,25,-99.99,,,-99.99,meteohub,2013-02-13 23:00:00,
2013-02-13 17:05:00,36.3,28.0,28.63,SSW,193,4.0,5.0,25,-99.99,,,-99.99,meteohub,2013-02-13 23:05:00,
2013-02-13 17:10:00,36.1,28.0,28.63,South,185,3.0,5.0,25,-99.99,,,-99.99,meteohub,2013-02-13 23:10:00,
2013-02-13 17:16:00,36.0,28.0,28.63,WSW,248,3.0,6.0,25,-99.99,,,-99.99,meteohub,2013-02-13 23:16:00,
2013-02-13 17:21:00,35.8,28.0,28.63,SSW,212,3.0,6.0,25,-99.99,,,-99.99,meteohub,2013-02-13 23:21:00,
2013-02-13 17:26:00,35.4,28.2,28.63,SSW,197,3.0,4.0,25,-99.99,,,-99.99,meteohub,2013-02-13 23:26:00,
2013-02-13 17:31:00,35.1,28.2,28.63,SSW,198,0.0,4.0,25,-99.99,,,-99.99,meteohub,2013-02-13 23:31:00,
2013-02-13 17:37:00,34.9,28.0,28.60,SSW,197,0.0,4.0,25,-99.99,,,-99.99,meteohub,2013-02-13 23:37:00,
2013-02-13 17:42:00,34.5,28.0,28.60,SSW,197,0.0,4.0,25,-99.99,,,-99.99,meteohub,2013-02-13 23:42:00,
2013-02-13 17:47:00,34.3,28.0,28.60,SSW,197,0.0,3.0,25,-99.99,,,-99.99,meteohub,2013-02-13 23:47:00,
2013-02-13 17:52:00,34.3,28.0,28.60,SSW,198,0.0,2.0,25,-99.99,,,-99.99,meteohub,2013-02-13 23:52:00,
2013-02-13 17:57:00,34.2,28.0,28.60,SSW,197,0.0,0.0,25,-99.99,,,-99.99,meteohub,2013-02-13 23:57:00,
2013-02-13 18:02:00,34.0,28.0,28.60,SSW,198,0.0,0.0,25,-99.99,,,-99.99,meteohub,2013-02-14 00:02:00,
2013-02-13 18:07:00,33.8,28.0,28.60,SSW,197,0.0,0.0,25,-99.99,,,-99.99,meteohub,2013-02-14 00:07:00,
2013-02-13 18:12:00,33.8,28.0,28.60,SSW,198,0.0,0.0,25,-99.99,,,-99.99,meteohub,2013-02-14 00:12:00,
2013-02-13 18:17:00,33.8,28.0,28.60,SSW,197,0.0,0.0,25,-99.99,,,-99.99,meteohub,2013-02-14 00:17:00,
2013-02-13 18:23:00,33.6,28.0,28.60,SSW,198,0.0,0.0,25,-99.99,,,-99.99,meteohub,2013-02-14 00:23:00,
2013-02-13 18:28:00,33.6,28.0,28.60,SSW,198,0.0,0.0,25,-99.99,,,-99.99,meteohub,2013-02-14 00:28:00,
2013-02-13 18:33:00,33.6,28.0,28.60,SSW,197,0.0,0.0,25,-99.99,,,-99.99,meteohub,2013-02-14 00:33:00,
2013-02-13 18:38:00,33.6,28.0,28.60,SSW,197,0.0,0.0,25,-99.99,,,-99.99,meteohub,2013-02-14 00:38:00,
2013-02-13 18:44:00,33.4,28.0,28.60,SSW,197,0.0,0.0,25,-99.99,,,-99.99,meteohub,2013-02-14 00:44:00,
2013-02-13 18:49:00,33.4,28.0,28.60,East,96,0.0,0.0,25,-99.99,,,-99.99,meteohub,2013-02-14 00:49:00,
2013-02-13 18:54:00,33.3,28.0,28.60,East,89,0.0,0.0,25,-99.99,,,-99.99,meteohub,2013-02-14 00:54:00,
2013-02-13 18:59:00,33.3,28.0,28.60,East,89,0.0,0.0,25,-99.99,,,-99.99,meteohub,2013-02-14 00:59:00,
2013-02-13 19:04:00,33.3,28.0,28.60,ENE,76,0.0,0.0,25,-99.99,,,-99.99,meteohub,2013-02-14 01:04:00,
2013-02-13 19:10:00,33.3,28.0,28.60,ENE,76,0.0,0.0,25,-99.99,,,-99.99,meteohub,2013-02-14 01:10:00,
2013-02-13 19:15:00,33.3,28.0,28.60,ENE,76,0.0,0.0,25,-99.99,,,-99.99,meteohub,2013-02-14 01:15:00,
2013-02-13 19:20:00,33.3,28.0,28.60,ENE,76,0.0,0.0,25,-99.99,,,-99.99,meteohub,2013-02-14 01:20:00,
2013-02-13 19:25:00,33.3,28.0,28.60,ENE,76,0.0,0.0,25,-99.99,,,-99.99,meteohub,2013-02-14 01:25:00,
2013-02-13 19:30:00,33.3,28.0,28.60,ENE,76,0.0,0.0,25,-99.99,,,-99.99,meteohub,2013-02-14 01:30:00,
2013-02-13 19:36:00,33.3,28.0,28.57,ENE,76,0.0,0.0,25,-99.99,,,-99.99,meteohub,2013-02-14 01:36:00,
2013-02-13 19:41:00,33.3,28.0,28.57,ENE,76,0.0,0.0,25,-99.99,,,-99.99,meteohub,2013-02-14 01:41:00,
2013-02-13 19:46:00,33.3,28.0,28.57,ENE,76,0.0,0.0,25,-99.99,,,-99.99,meteohub,2013-02-14 01:46:00,
2013-02-13 19:51:00,33.3,28.0,28.60,ESE,103,0.0,0.0,25,-99.99,,,-99.99,meteohub,2013-02-14 01:51:00,
2013-02-13 19:56:00,33.3,28.0,28.60,East,97,0.0,0.0,25,-99.99,,,-99.99,meteohub,2013-02-14 01:56:00,
2013-02-13 20:01:00,33.3,28.0,28.60,East,97,0.0,0.0,25,-99.99,,,-99.99,meteohub,2013-02-14 02:01:00,
2013-02-13 20:07:00,33.3,28.0,28.57,East,97,0.0,0.0,25,-99.99,,,-99.99,meteohub,2013-02-14 02:07:00,
2013-02-13 20:12:00,33.1,28.0,28.57,East,84,0.0,0.0,25,-99.99,,,-99.99,meteohub,2013-02-14 02:12:00,
2013-02-13 20:17:00,33.1,28.0,28.57,East,92,0.0,0.0,25,-99.99,,,-99.99,meteohub,2013-02-14 02:17:00,
2013-02-13 20:22:00,33.1,28.0,28.57,East,90,0.0,0.0,25,-99.99,,,-99.99,meteohub,2013-02-14 02:22:00,
2013-02-13 20:27:00,33.1,28.0,28.57,East,83,0.0,0.0,25,-99.99,,,-99.99,meteohub,2013-02-14 02:27:00,
2013-02-13 20:32:00,33.1,28.0,28.57,East,83,0.0,0.0,25,-99.99,,,-99.99,meteohub,2013-02-14 02:32:00,
2013-02-13 20:37:00,33.1,28.0,28.57,ESE,110,0.0,0.0,25,-99.99,,,-99.99,meteohub,2013-02-14 02:37:00,
2013-02-13 20:42:00,33.1,28.0,28.57,ENE,77,0.0,0.0,25,-99.99,,,-99.99,meteohub,2013-02-14 02:42:00,
2013-02-13 20:47:00,33.1,28.0,28.57,ENE,70,0.0,3.0,25,-99.99,,,-99.99,meteohub,2013-02-14 02:47:00,
2013-02-13 20:52:00,33.1,28.0,28.57,ENE,70,0.0,3.0,25,-99.99,,,-99.99,meteohub,2013-02-14 02:52:00,
2013-02-13 20:57:00,33.1,28.0,28.57,ENE,71,0.0,3.0,25,-99.99,,,-99.99,meteohub,2013-02-14 02:57:00,
2013-02-13 21:02:00,33.1,28.0,28.57,ENE,75,0.0,3.0,25,-99.99,,,-99.99,meteohub,2013-02-14 03:02:00,
2013-02-13 21:07:00,33.1,28.0,28.57,East,80,0.0,3.0,25,-99.99,,,-99.99,meteohub,2013-02-14 03:07:00,
2013-02-13 21:12:00,33.1,28.0,28.57,East,80,0.0,3.0,25,-99.99,,,-99.99,meteohub,2013-02-14 03:12:00,
2013-02-13 21:17:00,33.1,28.0,28.57,East,81,0.0,3.0,25,-99.99,,,-99.99,meteohub,2013-02-14 03:17:00,
2013-02-13 21:22:00,33.1,27.9,28.57,East,81,0.0,3.0,25,-99.99,,,-99.99,meteohub,2013-02-14 03:22:00,
2013-02-13 21:27:00,33.1,28.0,28.57,East,81,0.0,3.0,25,-99.99,,,-99.99,meteohub,2013-02-14 03:27:00,
2013-02-13 21:32:00,33.1,28.0,28.57,ENE,69,0.0,3.0,25,-99.99,,,-99.99,meteohub,2013-02-14 03:32:00,
2013-02-13 21:37:00,33.1,27.9,28.57,ENE,63,0.0,3.0,25,-99.99,,,-99.99,meteohub,2013-02-14 03:37:00,
2013-02-13 21:42:00,33.1,27.9,28.57,NNE,33,0.0,3.0,25,-99.99,,,-99.99,meteohub,2013-02-14 03:42:00,
2013-02-13 21:47:00,33.1,27.9,28.57,NE,34,0.0,3.0,25,-99.99,,,-99.99,meteohub,2013-02-14 03:47:00,
2013-02-13 21:52:00,33.1,27.9,28.57,NNE,32,0.0,3.0,25,-99.99,,,-99.99,meteohub,2013-02-14 03:52:00,
2013-02-13 21:57:00,33.1,27.9,28.57,NE,34,0.0,3.0,25,-99.99,,,-99.99,meteohub,2013-02-14 03:57:00,
2013-02-13 22:02:00,33.1,27.9,28.57,NNE,32,0.0,3.0,25,-99.99,,,-99.99,meteohub,2013-02-14 04:02:00,
2013-02-13 22:07:00,33.1,27.9,28.57,NNE,32,2.0,3.0,25,-99.99,,,-99.99,meteohub,2013-02-14 04:07:00,
2013-02-13 22:12:00,33.1,27.9,28.57,NE,37,2.0,3.0,25,-99.99,,,-99.99,meteohub,2013-02-14 04:12:00,
2013-02-13 22:17:00,33.1,27.9,28.57,North,1,0.0,3.0,25,-99.99,,,-99.99,meteohub,2013-02-14 04:17:00,
2013-02-13 22:22:00,33.1,27.9,28.57,North,4,0.0,3.0,25,-99.99,,,-99.99,meteohub,2013-02-14 04:22:00,
2013-02-13 22:27:00,33.1,28.6,28.57,NNE,22,0.0,3.0,26,-99.99,,,-99.99,meteohub,2013-02-14 04:27:00,
2013-02-13 22:32:00,33.1,28.6,28.57,NNE,32,2.0,3.0,26,-99.99,,,-99.99,meteohub,2013-02-14 04:32:00,
2013-02-13 22:37:00,33.1,27.9,28.57,NNE,25,2.0,3.0,25,-99.99,,,-99.99,meteohub,2013-02-14 04:37:00,
2013-02-13 22:43:00,33.1,27.9,28.57,North,10,2.0,3.0,25,-99.99,,,-99.99,meteohub,2013-02-14 04:43:00,
2013-02-13 22:48:00,33.1,28.6,28.57,NNE,12,3.0,4.0,26,-99.99,,,-99.99,meteohub,2013-02-14 04:48:00,
2013-02-13 22:53:00,33.1,28.6,28.57,North,3,0.0,4.0,26,-99.99,,,-99.99,meteohub,2013-02-14 04:53:00,
2013-02-13 22:58:00,32.9,28.8,28.57,North,7,3.0,4.0,26,-99.99,,,-99.99,meteohub,2013-02-14 04:58:00,
2013-02-13 23:00:00,32.9,28.8,28.57,NE,43,4.0,4.0,26,-99.99,,,-99.99,meteohub,2013-02-14 05:00:00,
2013-02-13 23:01:00,32.9,28.8,28.57,NNE,27,0.0,5.0,26,-99.99,,,-99.99,meteohub,2013-02-14 05:01:00,
2013-02-13 23:02:00,32.9,28.8,28.57,NNE,12,2.0,5.0,26,-99.99,,,-99.99,meteohub,2013-02-14 05:02:00,
2013-02-13 23:07:00,32.9,28.8,28.57,North,0,3.0,5.0,26,-99.99,,,-99.99,meteohub,2013-02-14 05:07:00,
2013-02-13 23:12:00,32.9,28.8,28.57,North,0,3.0,5.0,26,-99.99,,,-99.99,meteohub,2013-02-14 05:12:00,
2013-02-13 23:18:00,32.9,28.8,28.57,NNE,22,5.0,5.0,26,-99.99,,,-99.99,meteohub,2013-02-14 05:18:00,
2013-02-13 23:23:00,32.7,28.9,28.57,NNE,19,3.0,5.0,26,-99.99,,,-99.99,meteohub,2013-02-14 05:23:00,
2013-02-13 23:28:00,32.7,28.9,28.57,NNE,19,3.0,5.0,26,-99.99,,,-99.99,meteohub,2013-02-14 05:28:00,
2013-02-13 23:33:00,32.7,28.9,28.57,North,353,2.0,5.0,26,-99.99,,,-99.99,meteohub,2013-02-14 05:33:00,
2013-02-13 23:38:00,32.7,28.9,28.57,NNW,339,3.0,4.0,26,-99.99,,,-99.99,meteohub,2013-02-14 05:38:00,
2013-02-13 23:44:00,32.7,28.9,28.57,North,357,3.0,4.0,26,-99.99,,,-99.99,meteohub,2013-02-14 05:44:00,
2013-02-13 23:49:00,32.7,28.9,28.57,NNW,337,4.0,4.0,26,-99.99,,,-99.99,meteohub,2013-02-14 05:49:00,
2013-02-13 23:54:00,32.7,28.9,28.57,NW,305,3.0,5.0,26,-99.99,,,-99.99,meteohub,2013-02-14 05:54:00,
2013-02-13 23:59:00,32.7,29.1,28.57,NNW,348,4.0,5.0,26,-99.99,,,-99.99,meteohub,2013-02-14 05:59:00,